[TLELIST] Archives

 

[list_settings.list_name] Current TLEs

July 16th 2009 PST

HST 1 20580U 90037B 09194.51349712 +.00000309 +00000-0 +10848-4 0 04205 2 20580 028.4709 290.4849 0003571 201.0834 158.9591 15.00815143853818 ISS (ZARYA) 1 25544U 98067A 09197.13813881 .00010048 00000-0 72057-4 0 2248 2 25544 051.6378 158.2168 0007161 228.9410 239.2455 15.74388051610519 CXO 1 25867U 99040B 09195.58333333 +.00000074 +00000-0 +10000-3 0 03455 2 25867 065.5569 068.1929 7576543 275.8081 358.6226 00.37808519005119 ____________________________________________________________________ These 2-Line ...Continue Reading

[list_settings.list_name] Current TLEs

July 15th 2009 PST

HST 1 20580U 90037B 09194.51349712 +.00000309 +00000-0 +10848-4 0 04205 2 20580 028.4709 290.4849 0003571 201.0834 158.9591 15.00815143853818 ISS (ZARYA) 1 25544U 98067A 09194.90583292 +.00014937 +00000-0 +10511-3 0 02113 2 25544 051.6393 169.6860 0006942 221.9667 185.6363 15.74352531610161 CXO 1 25867U 99040B 09195.58333333 +.00000074 +00000-0 +10000-3 0 03455 2 25867 065.5569 068.1929 7576543 275.8081 358.6226 00.37808519005119 ____________________________________________________________________ These 2-Line ...Continue Reading

[list_settings.list_name] Current TLEs

July 14th 2009 PST

HST 1 20580U 90037B 09190.78951936 +.00000286 +00000-0 +91467-5 0 04196 2 20580 028.4709 314.7820 0003571 161.5079 198.5662 15.00814182853257 ISS (ZARYA) 1 25544U 98067A 09193.89889522 -.00200642 +00000-0 -13028-2 0 02066 2 25544 051.6391 174.8720 0007873 265.7451 191.9979 15.75714260610001 CXO 1 25867U 99040B 09192.95833333 +.00000057 +00000-0 +10000-3 0 03448 2 25867 065.5430 068.2971 7572956 275.7932 001.3349 00.37806341005100 ____________________________________________________________________ These 2-Line ...Continue Reading

[list_settings.list_name] Current TLEs

July 13th 2009 PST

HST 1 20580U 90037B 09190.78951936 +.00000286 +00000-0 +91467-5 0 04196 2 20580 028.4709 314.7820 0003571 161.5079 198.5662 15.00814182853257 ISS (ZARYA) 1 25544U 98067A 09193.76554074 .00007389 00000-0 54335-4 0 2051 2 25544 051.6370 175.5450 0007282 216.5160 203.9979 15.74309800609989 CXO 1 25867U 99040B 09192.95833333 +.00000057 +00000-0 +10000-3 0 03448 2 25867 065.5430 068.2971 7572956 275.7932 001.3349 00.37806341005100 ____________________________________________________________________ These 2-Line ...Continue Reading

[list_settings.list_name] Current TLEs

July 12th 2009 PST

HST 1 20580U 90037B 09190.78951936 +.00000286 +00000-0 +91467-5 0 04196 2 20580 028.4709 314.7820 0003571 161.5079 198.5662 15.00814182853257 ISS (ZARYA) 1 25544U 98067A 09191.86087965 +.00007394 +00000-0 +54431-4 0 01939 2 25544 051.6376 185.3286 0007544 208.9838 209.6574 15.74279173609689 CXO 1 25867U 99040B 09192.95833333 +.00000057 +00000-0 +10000-3 0 03448 2 25867 065.5430 068.2971 7572956 275.7932 001.3349 00.37806341005100 ____________________________________________________________________ These 2-Line ...Continue Reading

[list_settings.list_name] Current TLEs

July 11th 2009 PST

HST 1 20580U 90037B 09189.79202399 +.00000280 +00000-0 +86852-5 0 04182 2 20580 028.4708 321.2916 0003574 150.8228 209.2522 15.00813861853107 ISS (ZARYA) 1 25544U 98067A 09191.49424947 .00007509 00000-0 55223-4 0 1919 2 25544 051.6372 187.2135 0007393 206.9621 292.4394 15.74273747609624 CXO 1 25867U 99040B 09190.29166667 -.00000045 +00000-0 +10000-3 0 03439 2 25867 065.5315 068.3732 7569041 275.7922 358.3549 00.37805061005091 ____________________________________________________________________ These 2-Line ...Continue Reading

[list_settings.list_name] Current TLEs

July 10th 2009 PST

HST 1 20580U 90037B 09187.79703538 +.00000333 +00000-0 +12759-4 0 04173 2 20580 028.4707 334.3116 0003564 130.6996 229.3951 15.00813792852808 ISS (ZARYA) 1 25544U 98067A 09191.16907351 .00007355 00000-0 54195-4 0 1891 2 25544 051.6370 188.8844 0007455 205.8711 249.3919 15.74267895609578 CXO 1 25867U 99040B 09190.29166667 -.00000045 +00000-0 +10000-3 0 03439 2 25867 065.5315 068.3732 7569041 275.7922 358.3549 00.37805061005091 ____________________________________________________________________ These 2-Line ...Continue Reading

[list_settings.list_name] Current TLEs

July 9th 2009 PST

HST 1 20580U 90037B 09187.79703538 +.00000333 +00000-0 +12759-4 0 04173 2 20580 028.4707 334.3116 0003564 130.6996 229.3951 15.00813792852808 ISS (ZARYA) 1 25544U 98067A 09190.45402711 .00011031 00000-0 74669-4 0 1852 2 25544 051.6362 192.5595 0007614 204.5759 155.5409 15.74261391609464 CXO 1 25867U 99040B 09190.29166667 -.00000045 +00000-0 +10000-3 0 03439 2 25867 065.5315 068.3732 7569041 275.7922 358.3549 00.37805061005091 ____________________________________________________________________ These 2-Line ...Continue Reading

[list_settings.list_name] Current TLEs

July 8th 2009 PST

HST 1 20580U 90037B 09187.79703538 +.00000333 +00000-0 +12759-4 0 04173 2 20580 028.4707 334.3116 0003564 130.6996 229.3951 15.00813792852808 ISS (ZARYA) 1 25544U 98067A 09189.20137882 .00007088 00000-0 52458-4 0 1777 2 25544 051.6381 198.9924 0007690 197.3028 258.9066 15.74235877609268 CXO 1 25867U 99040B 09187.66666667 -.00000158 +00000-0 +10000-3 0 03425 2 25867 065.5213 068.4528 7565150 275.7912 001.0278 00.37805757005080 ____________________________________________________________________ These 2-Line ...Continue Reading

[list_settings.list_name] Current TLEs

July 7th 2009 PST

HST 1 20580U 90037B 09184.87104713 +.00000299 +00000-0 +10095-4 0 04160 2 20580 028.4709 353.4064 0003543 098.9457 261.1520 15.00812797852360 ISS (ZARYA) 1 25544U 98067A 09188.17668086 .00007314 00000-0 54021-4 0 1711 2 25544 051.6384 204.2565 0007864 193.2715 211.8328 15.74220900609107 CXO 1 25867U 99040B 09187.66666667 -.00000158 +00000-0 +10000-3 0 03425 2 25867 065.5213 068.4528 7565150 275.7912 001.0278 00.37805757005080 ____________________________________________________________________ These 2-Line ...Continue Reading
  • This mailing list is a public mailing list - anyone may join or leave, at any time.
  • This mailing list is announce-only.

International Space Station (ISS) / Hubble Space Telescope (HST) / Chandra X-Ray Observatory Orbital Data via EMAIL

Privacy Policy:

Private list